DECAYED

COSMOS 2251 DEB, 37327 (Decayed)

Orbit data source: Space-Track

COSMOS 2251 DEB, 37327 was space debris in LEO originally from a launch on Wed, 16 Jun 1993 UTC launched from the Plesetsk Missile And Space Complex (PKMTR). The debris from Iridium 33, an American commercial communications satellite, has been tracked extensively since its accidental collision with the defunct Russian satellite Cosmos 2251 in 2009. This event, occurring at high speed in low Earth orbit (LEO), generated thousands of pieces of space debris, significantly increasing the risk of further collisions. The Iridium 33 debris cloud has impacted space traffic management and orbital debris mitigation strategies, making it a subject of ongoing study in space situational awareness.

Not visible in the next 10 days
Identifier
37327, 1993-036BKT
Orbit
Decayed
Country
Flag of CISCIS
Related business
Manufacturer
Unknown
Mission
Decayed spacecraft
Bus & Motor
Unknown
Mass
Unknown
Launch date (UTC)
1993-06-16 (33 years ago)
Launch vehicle
Unknown
Launch site
Plesetsk Missile And Space Complex (PKMTR)
Object type
Payload
Rocket body
Debris
Shape & HBR
Unknown shape, 0.1 m
Radar Cross Section
Small (<0.1 m²)

Expand to show TLE details & history
Last TLE update: 1 year ago

TLE from 1 year ago
0 COSMOS 2251 DEB
1 37327U 93036BKT 25106.59581436  .00307434  00000-0  11000-1 0  9992
2 37327  73.9980  77.0951 0018186 231.1641 128.7938 15.27247624 46953
Epoch: 2025-04-16T14:17Z
TLE epoch observation values (Epoch: 2025-04-16T14:17:58.360Z)
Latitude
0.00001°
Longitude
17.62213°
Altitude
494.597 km
Speed
7.613 km/s
True Right ascension
05h 08m 22s
True Declination
0° 00' 00"
Sunlit
Object was in daylight at epoch
Visualization orbit readout
Latitude
Unknown
Longitude
Unknown
Altitude
Unknown
Speed
Unknown
Apparent Right ascension
Unknown
Apparent Declination
Unknown
Sunlit
N/A
Visualization observer readout
Local Sidereal Time
17:08:32
Azimuth
Unknown
Elevation
Unknown
Doppler factor
Unknown
Orbital elements
Apogee altitude
494.047 km
Perigee altitude
469.097 km
Semi-major axis
6,859.709 km
Eccentricity
0.00182
Inclination
73.998°
RAAN
77.0951°
Arg. of periapsis
231.1641°
True anomaly
128.95599°
Mean anomaly
128.7938°
Eccentric anomaly
128.87492°
Mean motion
3.82019 °/min
Orbital period
94.24 mins
BSTAR
0.011
Loading maneuver chart data...
Computing Atmospheric mass density...

Documentation

Showing up to 5 results
|